Weather History for Miles City, MT

Change the Weather History Date:

Friday, June 21, 2013

  Actual Average Record
Temperature  
Mean Temperature 68 °F 68 °F  
Max Temperature 78 °F 81 °F 101 °F (1988)
Min Temperature 57 °F 54 °F 40 °F (1942)
Degree Days  
Heating Degree Days 0 2  
Month to date heating degree days 51 76  
Since 1 June heating degree days 51 76  
Since 1 July heating degree days 7139 7625  
Cooling Degree Days 3 4  
Month to date cooling degree days 40 58  
Year to date cooling degree days 53 78  
Since 1 June cooling degree days 40 58  
Growing Degree Days 18 (Base 50)    
Moisture  
Dew Point 49 °F    
Average Humidity 58    
Maximum Humidity 80    
Minimum Humidity 35    
Precipitation  
Precipitation 0.01 in 0.08 in 1.40 in (1947)
Month to date precipitation 2.21 1.89  
Year to date precipitation 10.73 6.59  
Sea Level Pressure  
Sea Level Pressure 29.93 in    
Wind  
Wind Speed 11 mph (NE)    
Max Wind Speed 21 mph    
Max Gust Speed 26 mph    
Visibility 10 miles    
Events Rain , Thunderstorm    
T = Trace of Precipitation, MM = Missing Value Source: NWS Daily Summary

Daily Weather History Graph

Daily Weather History Graph

Search for Another Location

Airport:

Trip Planner

Search our weather history database for the weather conditions in past years. The results will help you decide how hot, cold, wet, or windy it might be!

Date:

Astronomy

Jun. 21, 2013 Rise Set
Actual Time 5:10 AM MDT 8:59 PM MDT
Civil Twilight 4:31 AM MDT 9:39 PM MDT
Nautical Twilight 3:38 AM MDT 10:32 PM MDT
Astronomical Twilight 2:22 AM MDT 11:48 PM MDT
Moon 7:09 PM MDT (6/21) 3:34 AM MDT (6/21)
Length of Visible Light 17h 07m
Length of Day
15h 48m
Waxing Gibbous, 95% of the Moon is Illuminated
Jun 21
Waxing Gibbous
Jun 23
Full
Jun 29
Last Quarter
Jul 8
New
Jul 15
First Quarter

Hourly Weather History & Observations

Time (MDT) Temp. Dew Point Humidity Pressure Visibility Wind Dir Wind Speed Gust Speed Precip Events Conditions
12:53 AM 64.0 °F 44.1 °F 48% 29.91 in 10.0 mi NNE 13.8 mph - N/A   Partly Cloudy
1:53 AM 62.1 °F 44.1 °F 52% 29.93 in 10.0 mi NE 10.4 mph - N/A   Mostly Cloudy
2:53 AM 62.1 °F 43.0 °F 50% 29.94 in 10.0 mi NNE 8.1 mph - N/A   Overcast
3:53 AM 61.0 °F 44.1 °F 54% 29.93 in 10.0 mi NNE 9.2 mph - N/A   Overcast
4:32 AM 62.6 °F 44.6 °F 52% 29.99 in 10.0 mi NNE 8.1 mph - N/A Thunderstorm Thunderstorm
4:53 AM 60.1 °F 46.9 °F 62% 29.93 in 10.0 mi North 10.4 mph - 0.00 in Rain Light Rain
5:53 AM 59.0 °F 48.9 °F 69% 29.99 in 10.0 mi SSE 6.9 mph - 0.00 in Rain Light Rain
6:53 AM 59.0 °F 50.0 °F 72% 29.96 in 10.0 mi ENE 9.2 mph - 0.01 in   Mostly Cloudy
7:53 AM 61.0 °F 48.9 °F 64% 29.97 in 10.0 mi NE 11.5 mph - N/A   Overcast
8:53 AM 66.9 °F 48.9 °F 52% 29.94 in 10.0 mi ENE 12.7 mph - N/A   Clear
9:53 AM 68.0 °F 46.9 °F 47% 29.94 in 10.0 mi NE 17.3 mph - N/A   Mostly Cloudy
10:53 AM 71.1 °F 46.9 °F 42% 29.92 in 10.0 mi ENE 13.8 mph - N/A   Mostly Cloudy
11:53 AM 72.0 °F 48.9 °F 44% 29.91 in 10.0 mi NNE 12.7 mph 26.5 mph N/A   Clear
12:53 PM 75.0 °F 48.0 °F 38% 29.90 in 10.0 mi NE 11.5 mph - N/A   Partly Cloudy
1:53 PM 75.9 °F 48.0 °F 37% 29.90 in 10.0 mi NE 10.4 mph 20.7 mph N/A   Clear
2:53 PM 75.9 °F 46.9 °F 36% 29.89 in 10.0 mi ENE 12.7 mph 18.4 mph N/A   Partly Cloudy
3:53 PM 78.1 °F 48.9 °F 36% 29.89 in 10.0 mi ENE 11.5 mph - N/A   Clear
4:53 PM 75.9 °F 51.1 °F 42% 29.90 in 10.0 mi NE 12.7 mph - N/A   Partly Cloudy
5:53 PM 75.0 °F 51.1 °F 43% 29.90 in 10.0 mi ENE 9.2 mph - N/A   Overcast
6:53 PM 73.9 °F 53.1 °F 48% 29.89 in 10.0 mi NE 13.8 mph - N/A   Overcast
7:53 PM 71.1 °F 52.0 °F 51% 29.90 in 10.0 mi East 8.1 mph - N/A   Clear
8:53 PM 68.0 °F 53.1 °F 59% 29.92 in 10.0 mi NE 5.8 mph - N/A   Clear
9:53 PM 62.1 °F 52.0 °F 70% 29.97 in 10.0 mi North 10.4 mph - N/A   Clear
10:53 PM 60.1 °F 53.1 °F 78% 29.96 in 10.0 mi NE 12.7 mph - N/A   Scattered Clouds
11:53 PM 59.0 °F 53.1 °F 81% 29.95 in 10.0 mi North 11.5 mph - N/A   Scattered Clouds